GW2918 Weather Reports


time (UTC)temp
C
wind
direction
speed
KPH
gust
KPH
rain 1hr
cm
rain 24hr
cm
rain mn
cm
humidity
%
barometer
mb
20260904195701 23 7 6.4 9.7 0.00 0.00 0.00 75 1015.3
20260904194701 23 0 11.3 12.9 0.00 0.00 0.00 75 1015.4
20260904193656 23 53 3.2 16.1 0.00 0.00 0.00 76 1015.5
20260904192653 24 17 6.4 16.1 0.00 0.00 0.00 74 1015.6
20260904191651 24 359 6.4 6.4 0.00 0.00 0.00 73 1015.4
20260904190649 23 332 3.2 6.4 0.00 0.00 0.00 76 1015.6
20260904185647 23 347 6.4 9.7 0.00 0.00 0.00 75 1016.0
20260904184645 23 18 0.0 8.0 0.00 0.00 0.00 76 1015.8
20260904183643 23 343 4.8 6.4 0.00 0.00 0.00 78 1016.0
20260904182638 23 271 1.6 9.7 0.00 0.00 0.00 75 1016.4
20260904181635 23 75 1.6 8.0 0.00 0.00 0.00 75 1016.3
20260904180630 23 196 3.2 4.8 0.00 0.00 0.00 75 1016.4
20260904175631 23 53 8.0 11.3 0.00 0.00 0.00 76 1016.3
20260904174629 23 286 4.8 9.7 0.00 0.00 0.00 74 1016.4
20260904173627 23 10 6.4 17.7 0.00 0.00 0.00 74 1016.5
20260904172624 23 338 3.2 11.3 0.00 0.00 0.00 78 1016.6
20260904171624 22 0 8.0 9.7 0.00 0.00 0.00 77 1016.7
20260904170622 22 318 4.8 12.9 0.00 0.00 0.00 79 1016.7
20260904165621 23 59 9.7 14.5 0.00 0.00 0.00 78 1016.7
20260904164621 23 55 12.9 12.9 0.00 0.00 0.00 78 1016.8
20260904163618 22 305 4.8 14.5 0.00 0.00 0.00 79 1016.9
20260904162613 22 349 9.7 9.7 0.00 0.00 0.00 79 1016.6
20260904161609 22 292 3.2 12.9 0.00 0.00 0.00 79 1016.9
20260904160606 22 299 8.0 14.5 0.00 0.00 0.00 79 1016.7
20260904155601 23 311 4.8 14.5 0.00 0.00 0.00 76 1016.5
20260904154601 23 57 6.4 6.4 0.00 0.00 0.00 77 1016.7
20260904153601 22 329 3.2 9.7 0.00 0.00 0.00 78 1016.8
20260904152559 22 310 0.0 9.7 0.00 0.00 0.00 82 1016.8
20260904151555 21 353 1.6 14.5 0.00 0.00 0.00 79 1016.9
20260904150555 22 344 3.2 8.0 0.00 0.00 0.00 81 1016.5
20260904145554 22 317 8.0 14.5 0.00 0.00 0.00 83 1016.6
20260904144552 22 346 8.0 11.3 0.00 0.00 0.00 82 1016.6
20260904143549 22 40 8.0 12.9 0.00 0.00 0.00 86 1016.9
20260904142548 22 27 4.8 12.9 0.00 0.00 0.00 86 1016.9
20260904141543 22 350 6.4 8.0 0.00 0.00 0.00 85 1016.9
20260904140539 22 327 1.6 9.7 0.00 0.00 0.00 85 1016.9
20260904135538 22 55 4.8 8.0 0.00 0.00 0.00 80 1016.6
20260904134536 22 275 4.8 8.0 0.00 0.00 0.00 82 1016.5
20260904133537 22 331 4.8 6.4 0.00 0.00 0.00 83 1016.4
20260904132533 22 336 3.2 4.8 0.00 0.00 0.00 85 1016.5
20260904131533 22 89 3.2 4.8 0.00 0.00 0.00 86 1016.4
20260904130528 22 1 1.6 4.8 0.00 0.00 0.00 88 1016.0
20260904125525 22 358 3.2 6.4 0.00 0.00 0.00 88 1016.4
20260904124521 22 221 0.0 4.8 0.00 0.00 0.00 90 1016.4
20260904123516 22 306 3.2 4.8 0.00 0.00 0.00 90 1016.5
20260904122513 21 98 0.0 8.0 0.00 0.00 0.00 93 1016.5
20260904121508 21 4 9.7 11.3 0.00 0.00 0.00 91 1016.5
20260904120506 20 275 1.6 6.4 0.00 0.00 0.00 97 1016.0
20260904115503 20 347 3.2 4.8 0.00 0.00 0.00 98 1016.1
20260904114457 20 326 1.6 6.4 0.00 0.00 0.00 97 1016.4
20260904113452 20 256 1.6 4.8 0.00 0.00 0.00 97 1016.6
20260904112447 19 257 3.2 3.2 0.00 0.00 0.00 99 1016.4
20260904111444 18 315 0.0 3.2 0.00 0.00 0.00 99 1016.4
20260904110445 18 73 1.6 3.2 0.00 0.00 0.00 99 1016.3
20260904105441 18 243 0.0 4.8 0.00 0.00 0.00 99 1016.1
20260904104436 18 307 4.8 6.4 0.00 0.00 0.00 99 1015.9
20260904103434 18 227 0.0 3.2 0.00 0.00 0.00 99 1015.9
20260904102431 18 248 0.0 3.2 0.00 0.00 0.00 99 1015.7
20260904101429 19 19 0.0 3.2 0.00 0.00 0.00 99 1015.8
20260904100426 19 66 0.0 14.5 0.00 0.00 0.00 99 1015.9
20260904095421 19 317 3.2 16.1 0.00 0.00 0.00 99 1015.9
20260904094417 20 333 1.6 4.8 0.00 0.00 0.00 99 1015.8
20260904093413 19 349 0.0 6.4 0.00 0.00 0.00 99 1015.8
20260904092411 20 197 0.0 4.8 0.00 0.00 0.00 99 1015.9
20260904091408 20 65 1.6 3.2 0.00 0.00 0.00 99 1016.0
20260904090405 20 157 3.2 6.4 0.00 0.00 0.00 99 1015.7
20260904085401 19 206 1.6 3.2 0.00 0.00 0.00 99 1016.0
20260904084357 19 314 0.0 3.2 0.00 0.00 0.00 99 1015.6
20260904083355 20 214 0.0 4.8 0.00 0.00 0.00 99 1015.4
20260904082351 20 1 4.8 4.8 0.00 0.00 0.00 99 1015.5
20260904081347 20 288 3.2 4.8 0.00 0.00 0.00 99 1015.3
20260904080344 20 257 3.2 3.2 0.00 0.00 0.00 99 1015.4
20260904075341 19 182 0.0 3.2 0.00 0.00 0.00 99 1015.4
20260904074340 19 88 1.6 1.6 0.00 0.00 0.00 99 1015.2
20260904073337 19 63 0.0 1.6 0.00 0.00 0.00 99 1014.9
20260904072332 19 135 0.0 3.2 0.00 0.00 0.00 99 1015.0
20260904071329 19 147 0.0 3.2 0.00 0.00 0.00 99 1015.1
20260904070328 19 160 0.0 1.6 0.00 0.00 0.00 99 1015.0
20260904065326 19 133 0.0 3.2 0.00 0.00 0.00 99 1014.9
20260904064322 20 170 0.0 3.2 0.00 0.00 0.00 99 1014.9
20260904063320 20 186 0.0 1.6 0.00 0.00 0.00 99 1014.8
20260904062317 19 139 0.0 3.2 0.00 0.00 0.00 99 1014.7
20260904061314 19 147 0.0 3.2 0.00 0.00 0.00 99 1014.8
20260904060311 19 181 0.0 3.2 0.00 0.00 0.00 99 1014.7
20260904055307 19 133 1.6 4.8 0.00 0.00 0.00 99 1014.8
20260904054304 19 113 3.2 3.2 0.00 0.00 0.00 99 1015.0
20260904053259 19 311 0.0 4.8 0.00 0.00 0.00 99 1015.3
20260904052257 20 56 0.0 1.6 0.00 0.00 0.00 99 1015.3
20260904051254 20 182 1.6 4.8 0.00 0.00 0.00 99 1015.5
20260904050252 20 265 0.0 3.2 0.00 0.00 0.00 99 1015.3
20260904045253 20 219 0.0 4.8 0.00 0.00 0.00 99 1015.2
20260904044250 20 266 3.2 3.2 0.00 0.00 0.00 99 1015.4
20260904043248 20 197 0.0 4.8 0.00 0.00 0.00 99 1015.1
20260904042245 20 195 0.0 1.6 0.00 0.00 0.00 99 1015.4
20260904041241 20 356 0.0 1.6 0.00 0.00 0.00 99 1015.2
20260904040238 20 307 0.0 1.6 0.00 0.00 0.00 99 1015.6
20260904035235 21 234 0.0 4.8 0.00 0.66 0.66 99 1015.6
20260904034235 21 246 0.0 4.8 0.00 0.66 0.66 99 1015.7
20260904033233 21 211 3.2 6.4 0.00 0.66 0.66 99 1015.9
20260904032234 21 131 0.0 1.6 0.00 0.66 0.66 99 1015.7
20260904031230 20 249 0.0 1.6 0.00 0.66 0.66 99 1015.7
20260904030227 21 201 3.2 4.8 0.00 0.66 0.66 99 1015.6
20260904025224 21 206 4.8 4.8 0.00 0.66 0.66 99 1015.6
20260904024221 20 215 3.2 3.2 0.00 0.66 0.66 99 1015.6
20260904023219 21 206 3.2 4.8 0.00 0.66 0.66 99 1015.6
20260904022216 20 179 1.6 4.8 0.00 0.66 0.66 99 1015.5
20260904021212 20 118 1.6 3.2 0.00 0.66 0.66 99 1015.6
20260904020207 20 147 0.0 3.2 0.00 0.66 0.66 99 1015.7
20260904015206 20 171 0.0 1.6 0.05 0.66 0.66 99 1015.6
20260904014206 21 50 0.0 1.6 0.00 0.64 0.64 99 1016.0
20260904013204 20 154 0.0 1.6 0.00 0.64 0.64 99 1016.1
20260904012159 21 135 0.0 1.6 0.00 0.64 0.64 99 1016.5
20260904011154 21 126 0.0 1.6 0.00 0.64 0.64 99 1016.4
20260904010151 21 180 0.0 1.6 0.00 0.64 0.64 99 1016.5
20260904005148 21 180 1.6 1.6 0.00 0.64 0.64 99 1016.1
20260904004143 21 145 0.0 3.2 0.00 0.64 0.64 99 1016.3
20260904003141 21 218 0.0 3.2 0.00 0.64 0.64 99 1016.5
20260904002137 21 198 0.0 1.6 0.00 0.64 0.64 99 1016.5
20260904001137 21 157 0.0 1.6 0.00 0.64 0.64 99 1016.3
20260904000134 21 322 0.0 0.0 0.00 0.64 0.64 99 1016.0
20260903235130 21 334 3.2 4.8 0.00 0.64 0.64 99 1016.0
20260903234126 21 179 0.0 3.2 0.00 0.64 0.64 99 1015.6
20260903233124 21 50 8.0 9.7 0.61 0.64 0.64 99 1015.5
20260903232120 22 74 4.8 11.3 0.00 0.53 0.53 95 1016.1
20260903231120 23 341 6.4 6.4 0.00 0.53 0.53 97 1015.8
20260903230120 23 180 0.0 3.2 0.00 0.53 0.53 96 1015.7
20260903225119 23 40 1.6 1.6 0.00 0.53 0.53 96 1016.0
20260903224117 23 159 0.0 1.6 0.00 0.53 0.53 95 1015.8
20260903223116 24 64 3.2 3.2 0.00 0.53 0.53 98 1015.6
20260903222115 24 152 0.0 1.6 0.00 0.53 0.53 94 1015.2
20260903221115 24 284 1.6 1.6 0.00 0.53 0.53 94 1015.6
20260903220114 24 36 0.0 3.2 0.00 0.53 0.53 94 1015.4
20260903215114 24 164 1.6 4.8 0.00 0.53 0.53 93 1015.6
20260903214108 24 59 3.2 4.8 0.00 0.53 0.53 94 1015.3
20260903213105 23 352 1.6 4.8 0.05 0.53 0.53 96 1015.4
20260903212101 25 94 3.2 6.4 0.05 0.53 0.53 90 1015.2
20260903211059 25 80 3.2 8.0 0.00 0.51 0.51 88 1015.4
20260903210055 26 74 6.4 6.4 0.00 0.51 0.51 86 1015.3
20260903205055 27 278 4.8 6.4 0.00 0.51 0.51 82 1015.2
20260903204051 27 309 3.2 4.8 0.00 0.51 0.51 81 1015.2
20260903203047 27 221 3.2 16.1 0.00 0.51 0.51 81 1014.9
20260903202044 27 208 1.6 6.4 0.00 0.51 0.51 79 1015.6
20260903201044 27 218 3.2 8.0 0.00 0.51 0.51 80 1015.6
20260903200040 27 229 3.2 8.0 0.00 0.51 0.51 81 1015.7